• In Austria
  • List of Countries
  • For 7 days
  • Water Temperature
  • Satellite Maps
  • Weather Map
  • News
  • Weather Widgets
  • user-avatar
    Login

    Hourly Weather Beziers

    Today, 21 October, Sunday

    Time Temperature Precipitation Wind Pressure Humidity
    00:00 +16°C° 0 mm 2 mps 761 mmHg 83%
    01:00 +16°C° 0 mm 2 mps 761 mmHg 82%
    02:00 +16°C° 0 mm 2 mps 761 mmHg 81%
    03:00 +15°C° 0 mm 2 mps 761 mmHg 80%
    04:00 +15°C° 0 mm 2 mps 761 mmHg 78%
    05:00 +15°C° 0 mm 2 mps 761 mmHg 77%
    06:00 +14°C° 0 mm 2 mps 760 mmHg 75%
    07:00 +16°C° 0 mm 2 mps 760 mmHg 68%
    08:00 +18°C° 0 mm 2 mps 760 mmHg 62%
    09:00 +20°C° 0 mm 2 mps 760 mmHg 55%
    10:00 +21°C° 0 mm 2 mps 759 mmHg 49%
    11:00 +24°C° 0 mm 2 mps 759 mmHg 43%
    12:00 +25°C° 0 mm 2 mps 759 mmHg 37%
    13:00 +26°C° 0 mm 3 mps 758 mmHg 38%
    14:00 +26°C° 0 mm 3 mps 757 mmHg 40%
    15:00 +26°C° 0 mm 4 mps 757 mmHg 41%
    16:00 +23°C° 0 mm 4 mps 757 mmHg 48%
    17:00 +21°C° 0 mm 5 mps 757 mmHg 54%
    18:00 +19°C° 0 mm 5 mps 757 mmHg 61%
    19:00 +17°C° 0 mm 5 mps 757 mmHg 63%
    20:00 +17°C° 0 mm 5 mps 757 mmHg 66%
    21:00 +16°C° 0 mm 5 mps 758 mmHg 68%
    22:00 +17°C° 0 mm 4 mps 758 mmHg 69%
    23:00 +15°C° 0 mm 4 mps 758 mmHg 70%

    Tomorrow, 22 October, Monday

    Time Temperature Precipitation Wind Pressure Humidity
    00:00 +14°C° 0 mm 4 mps 758 mmHg 71%
    01:00 +14°C° 0 mm 4 mps 758 mmHg 71%
    02:00 +14°C° 0 mm 4 mps 759 mmHg 71%
    03:00 +13°C° 0 mm 3 mps 759 mmHg 70%
    04:00 +13°C° 0 mm 3 mps 759 mmHg 70%
    05:00 +13°C° 0 mm 3 mps 759 mmHg 69%
    06:00 +13°C° 0 mm 3 mps 760 mmHg 68%
    07:00 +16°C° 0 mm 2 mps 760 mmHg 63%
    08:00 +17°C° 0 mm 2 mps 760 mmHg 58%
    09:00 +19°C° 0 mm 2 mps 760 mmHg 53%
    10:00 +20°C° 0 mm 2 mps 760 mmHg 51%
    11:00 +21°C° 0 mm 2 mps 760 mmHg 49%
    12:00 +23°C° 0 mm 2 mps 760 mmHg 46%
    13:00 +23°C° 0 mm 2 mps 760 mmHg 46%
    14:00 +23°C° 0 mm 2 mps 760 mmHg 46%
    15:00 +23°C° 0 mm 2 mps 760 mmHg 46%
    16:00 +20°C° 0 mm 3 mps 760 mmHg 50%
    17:00 +18°C° 0 mm 3 mps 760 mmHg 54%
    18:00 +17°C° 0 mm 4 mps 761 mmHg 58%
    19:00 +15°C° 0 mm 4 mps 761 mmHg 58%
    20:00 +14°C° 0 mm 4 mps 762 mmHg 58%
    21:00 +14°C° 0 mm 4 mps 762 mmHg 58%
    22:00 +13°C° 0 mm 4 mps 762 mmHg 59%
    23:00 +12°C° 0 mm 5 mps 762 mmHg 60%

    Day after tomorrow, 23 October, Tuesday

    Time Temperature Precipitation Wind Pressure Humidity
    00:00 +12°C° 0 mm 5 mps 762 mmHg 62%
    01:00 +12°C° 0 mm 5 mps 762 mmHg 63%
    02:00 +10°C° 0 mm 5 mps 762 mmHg 64%
    03:00 +10°C° 0 mm 5 mps 762 mmHg 65%
    04:00 +11°C° 0 mm 4 mps 763 mmHg 65%
    05:00 +10°C° 0 mm 4 mps 763 mmHg 66%
    06:00 +10°C° 0 mm 4 mps 763 mmHg 67%
    07:00 +12°C° 0 mm 4 mps 763 mmHg 61%
    08:00 +14°C° 0 mm 4 mps 763 mmHg 56%
    09:00 +15°C° 0 mm 4 mps 764 mmHg 50%
    10:00 +18°C° 0 mm 4 mps 763 mmHg 47%
    11:00 +19°C° 0 mm 4 mps 763 mmHg 43%
    12:00 +21°C° 0 mm 3 mps 763 mmHg 40%
    13:00 +21°C° 0 mm 3 mps 763 mmHg 41%
    14:00 +21°C° 0 mm 4 mps 762 mmHg 42%
    15:00 +21°C° 0 mm 4 mps 762 mmHg 43%
    16:00 +20°C° 0 mm 4 mps 762 mmHg 48%
    17:00 +18°C° 0 mm 4 mps 762 mmHg 53%
    18:00 +15°C° 0 mm 4 mps 762 mmHg 58%
    19:00 +14°C° 0 mm 5 mps 763 mmHg 59%
    20:00 +14°C° 0 mm 5 mps 763 mmHg 60%
    21:00 +13°C° 0 mm 6 mps 763 mmHg 61%
    22:00 +13°C° 0 mm 6 mps 763 mmHg 61%
    23:00 +11°C° 0 mm 6 mps 763 mmHg 61%

    24 October, Wednesday

    Time Temperature Precipitation Wind Pressure Humidity
    00:00 +11°C° 0 mm 6 mps 762 mmHg 61%
    01:00 +11°C° 0 mm 7 mps 762 mmHg 59%
    02:00 +11°C° 0 mm 7 mps 762 mmHg 58%
    03:00 +11°C° 0 mm 7 mps 761 mmHg 56%
    04:00 +11°C° 0 mm 7 mps 761 mmHg 56%
    05:00 +11°C° 0 mm 7 mps 761 mmHg 56%
    06:00 +11°C° 0 mm 7 mps 761 mmHg 56%
    07:00 +12°C° 0 mm 7 mps 761 mmHg 53%
    08:00 +15°C° 0 mm 7 mps 761 mmHg 50%
    09:00 +17°C° 0 mm 8 mps 761 mmHg 48%
    10:00 +18°C° 0 mm 8 mps 760 mmHg 45%
    11:00 +21°C° 0 mm 8 mps 760 mmHg 43%
    12:00 +23°C° 0 mm 8 mps 760 mmHg 41%
    13:00 +23°C° 0 mm 7 mps 759 mmHg 42%
    14:00 +23°C° 0 mm 7 mps 759 mmHg 44%
    15:00 +23°C° 0 mm 7 mps 758 mmHg 45%
    16:00 +21°C° 0 mm 7 mps 758 mmHg 50%
    17:00 +20°C° 0 mm 7 mps 759 mmHg 54%
    18:00 +17°C° 0 mm 7 mps 759 mmHg 58%
    19:00 +16°C° 0 mm 7 mps 759 mmHg 61%
    20:00 +16°C° 0 mm 7 mps 759 mmHg 64%
    21:00 +15°C° 0 mm 7 mps 759 mmHg 67%
    22:00 +15°C° 0 mm 7 mps 759 mmHg 70%
    23:00 +14°C° 0 mm 6 mps 759 mmHg 72%

    25 October, Thursday

    Time Temperature Precipitation Wind Pressure Humidity
    00:00 +14°C° 0 mm 6 mps 758 mmHg 75%
    01:00 +14°C° 0 mm 6 mps 758 mmHg 76%
    02:00 +13°C° 0 mm 5 mps 758 mmHg 78%
    03:00 +13°C° 0 mm 5 mps 758 mmHg 79%
    04:00 +13°C° 0 mm 5 mps 758 mmHg 80%
    05:00 +12°C° 0 mm 4 mps 758 mmHg 81%
    06:00 +12°C° 0 mm 4 mps 758 mmHg 82%
    07:00 +14°C° 0 mm 4 mps 758 mmHg 75%
    08:00 +16°C° 0 mm 3 mps 758 mmHg 68%
    09:00 +18°C° 0 mm 3 mps 758 mmHg 62%
    10:00 +20°C° 0 mm 3 mps 758 mmHg 56%
    11:00 +23°C° 0 mm 2 mps 757 mmHg 49%
    12:00 +25°C° 0 mm 1 mps 757 mmHg 43%
    13:00 +25°C° 0 mm 1 mps 756 mmHg 44%
    14:00 +24°C° 0 mm 1 mps 756 mmHg 44%
    15:00 +24°C° 0 mm 1 mps 756 mmHg 45%
    16:00 +21°C° 0 mm 2 mps 756 mmHg 53%
    17:00 +19°C° 0 mm 2 mps 756 mmHg 61%
    18:00 +17°C° 0 mm 2 mps 756 mmHg 69%
    19:00 +16°C° 0 mm 2 mps 756 mmHg 71%
    20:00 +16°C° 0 mm 1 mps 756 mmHg 73%
    21:00 +15°C° 0 mm 1 mps 756 mmHg 75%
    22:00 +15°C° 0 mm 1 mps 756 mmHg 75%
    23:00 +15°C° 0 mm 1 mps 755 mmHg 76%

    26 October, Friday

    Time Temperature Precipitation Wind Pressure Humidity
    00:00 +15°C° 0 mm 1 mps 755 mmHg 76%
    01:00 +14°C° 0 mm 1 mps 755 mmHg 77%
    02:00 +14°C° 0 mm 1 mps 755 mmHg 77%
    03:00 +14°C° 0 mm 2 mps 754 mmHg 78%
    04:00 +14°C° 0 mm 2 mps 754 mmHg 78%
    05:00 +13°C° 0 mm 2 mps 754 mmHg 79%
    06:00 +13°C° 0 mm 2 mps 753 mmHg 79%
    07:00 +15°C° 0 mm 2 mps 753 mmHg 73%
    08:00 +17°C° 0 mm 2 mps 753 mmHg 67%
    09:00 +18°C° 0 mm 2 mps 753 mmHg 62%
    10:00 +20°C° 0 mm 2 mps 753 mmHg 59%
    11:00 +21°C° 0 mm 2 mps 752 mmHg 57%
    12:00 +23°C° 0 mm 1 mps 752 mmHg 54%
    13:00 +23°C° 0 mm 1 mps 751 mmHg 56%
    14:00 +23°C° 0 mm 1 mps 751 mmHg 58%
    15:00 +22°C° 0 mm 1 mps 750 mmHg 60%
    16:00 +21°C° 0 mm 1 mps 750 mmHg 67%
    17:00 +19°C° 0 mm 1 mps 750 mmHg 73%
    18:00 +18°C° 0 mm 1 mps 750 mmHg 80%
    19:00 +16°C° 0 mm 1 mps 750 mmHg 80%
    20:00 +16°C° 0 mm 1 mps 750 mmHg 80%
    21:00 +16°C° 0 mm 1 mps 749 mmHg 80%
    22:00 +16°C° 0 mm 1 mps 749 mmHg 82%
    23:00 +16°C° 0 mm 2 mps 749 mmHg 83%
    Show more